Location: Newark
(49.5647°N, 8.2922°E)
Time: 08:07:10
(UTC+00:00)

Transit 2A - Pass Details

Date: 24 February 2020
Orbit: 597 x 962 km, 66.7° (Epoch: 08 April)

Event Time Altitude Azimuth Distance (km) Brightness Sun altitude
Rises 18:02:52 0° 325° (NW) 2,984 9.6 -10.9°
Reaches altitude 10° 18:05:57 10° 347° (NNW) 2,132 8.5 -11.4°
Maximum altitude 18:08:58 16° 26° (NNE) 1,811 7.7 -11.9°
Enters shadow 18:11:24 12° 58° (ENE) 2,104 7.8 -12.3°
Drops below altitude 10° 18:12:09 10° 65° (ENE) 2,270 - -12.4°
Sets 18:15:35 0° 86° (E) 3,278 - -12.9°
